| time (UTC) | temp F | wind direction | speed MPH | gust MPH | rain 1hr in | rain 24hr in | rain mn in | humidity % | barometer mb |
| 20260906131510 | 79 | 154 | 3.0 | 7.0 | 0.00 | 0.00 | 0.00 | 86 | 1015.2 |
| 20260906131009 | 79 | 140 | 2.0 | 6.0 | 0.00 | 0.00 | 0.00 | 86 | 1015.3 |
| 20260906130509 | 79 | 142 | 2.0 | 5.0 | 0.00 | 0.00 | 0.00 | 86 | 1015.3 |
| 20260906130010 | 79 | 138 | 0.0 | 6.0 | 0.00 | 0.00 | 0.00 | 86 | 1015.2 |
| 20260906125509 | 79 | 153 | 2.0 | 6.0 | 0.00 | 0.00 | 0.00 | 87 | 1015.1 |
| 20260906125009 | 78 | 154 | 2.0 | 5.0 | 0.00 | 0.00 | 0.00 | 87 | 1015.0 |
| 20260906124510 | 78 | 149 | 2.0 | 6.0 | 0.00 | 0.00 | 0.00 | 87 | 1014.9 |
| 20260906124010 | 78 | 309 | 1.0 | 6.0 | 0.00 | 0.00 | 0.00 | 87 | 1014.8 |
| 20260906123509 | 78 | 165 | 1.0 | 7.0 | 0.00 | 0.00 | 0.00 | 87 | 1014.8 |
| 20260906123010 | 78 | 188 | 2.0 | 7.0 | 0.00 | 0.00 | 0.00 | 87 | 1014.7 |
| 20260906122509 | 78 | 144 | 1.0 | 5.0 | 0.00 | 0.00 | 0.00 | 87 | 1014.7 |
| 20260906121510 | 78 | 136 | 3.0 | 6.0 | 0.00 | 0.00 | 0.00 | 87 | 1014.6 |
| 20260906121010 | 78 | 144 | 2.0 | 3.0 | 0.00 | 0.00 | 0.00 | 87 | 1014.6 |
| 20260906120509 | 78 | 143 | 2.0 | 3.0 | 0.00 | 0.00 | 0.00 | 87 | 1014.5 |
| 20260906120009 | 78 | 144 | 1.0 | 5.0 | 0.00 | 0.00 | 0.00 | 87 | 1014.3 |
| 20260906114510 | 78 | 151 | 1.0 | 6.0 | 0.00 | 0.00 | 0.00 | 87 | 1014.2 |
| 20260906114010 | 78 | 142 | 2.0 | 6.0 | 0.00 | 0.00 | 0.00 | 87 | 1014.2 |
| 20260906113010 | 78 | 138 | 1.0 | 6.0 | 0.00 | 0.00 | 0.00 | 87 | 1014.0 |
| 20260906112010 | 78 | 132 | 1.0 | 3.0 | 0.00 | 0.00 | 0.00 | 87 | 1014.2 |
| 20260906111510 | 78 | 153 | 1.0 | 3.0 | 0.00 | 0.00 | 0.00 | 87 | 1014.2 |
| 20260906111010 | 78 | 209 | 1.0 | 3.0 | 0.00 | 0.00 | 0.00 | 87 | 1014.2 |
| 20260906110510 | 78 | 148 | 1.0 | 3.0 | 0.00 | 0.00 | 0.00 | 87 | 1014.2 |
| 20260906105509 | 78 | 178 | 1.0 | 3.0 | 0.00 | 0.00 | 0.00 | 87 | 1014.1 |
| 20260906105010 | 78 | 148 | 1.0 | 3.0 | 0.00 | 0.00 | 0.00 | 87 | 1014.0 |
| 20260906104510 | 78 | 189 | 0.0 | 5.0 | 0.00 | 0.00 | 0.00 | 87 | 1013.9 |
| 20260906104010 | 78 | 189 | 1.0 | 5.0 | 0.00 | 0.00 | 0.00 | 87 | 1013.9 |
| 20260906103510 | 78 | 127 | 1.0 | 5.0 | 0.00 | 0.00 | 0.00 | 86 | 1013.8 |
| 20260906103010 | 78 | 144 | 0.0 | 3.0 | 0.00 | 0.00 | 0.00 | 86 | 1013.7 |
| 20260906102509 | 78 | 151 | 1.0 | 3.0 | 0.00 | 0.00 | 0.00 | 86 | 1013.7 |
| 20260906102009 | 78 | 140 | 1.0 | 3.0 | 0.00 | 0.00 | 0.00 | 86 | 1013.7 |
| 20260906101509 | 78 | 148 | 1.0 | 1.0 | 0.00 | 0.00 | 0.00 | 86 | 1013.7 |
| 20260906101009 | 78 | 141 | 0.0 | 3.0 | 0.00 | 0.00 | 0.00 | 86 | 1013.6 |
| 20260906100509 | 78 | 141 | 0.0 | 3.0 | 0.00 | 0.00 | 0.00 | 85 | 1013.6 |
| 20260906100009 | 78 | 142 | 1.0 | 3.0 | 0.00 | 0.00 | 0.00 | 85 | 1013.6 |
| 20260906095508 | 78 | 156 | 0.0 | 2.0 | 0.00 | 0.00 | 0.00 | 85 | 1013.6 |
| 20260906095009 | 78 | 156 | 0.0 | 2.0 | 0.00 | 0.00 | 0.00 | 85 | 1013.6 |
| 20260906094508 | 78 | 156 | 1.0 | 1.0 | 0.00 | 0.00 | 0.00 | 85 | 1013.7 |
| 20260906093508 | 79 | 156 | 0.0 | 2.0 | 0.00 | 0.00 | 0.00 | 85 | 1013.7 |
| 20260906093009 | 79 | 156 | 0.0 | 2.0 | 0.00 | 0.00 | 0.00 | 84 | 1013.7 |
| 20260906092508 | 79 | 159 | 0.0 | 1.0 | 0.00 | 0.00 | 0.00 | 84 | 1013.7 |
| 20260906091510 | 79 | 159 | 1.0 | 1.0 | 0.00 | 0.00 | 0.00 | 83 | 1013.7 |
| 20260906090508 | 79 | 159 | 0.0 | 1.0 | 0.00 | 0.00 | 0.00 | 83 | 1013.7 |
| 20260906090009 | 79 | 159 | 0.0 | 3.0 | 0.00 | 0.00 | 0.00 | 83 | 1013.7 |
| 20260906085508 | 79 | 159 | 0.0 | 3.0 | 0.00 | 0.00 | 0.00 | 83 | 1013.7 |
| 20260906085009 | 80 | 159 | 0.0 | 3.0 | 0.00 | 0.00 | 0.00 | 83 | 1013.7 |
| 20260906084509 | 80 | 159 | 0.0 | 1.0 | 0.00 | 0.00 | 0.00 | 83 | 1013.6 |
| 20260906084009 | 80 | 159 | 0.0 | 2.0 | 0.00 | 0.00 | 0.00 | 83 | 1013.6 |
| 20260906083509 | 80 | 159 | 0.0 | 2.0 | 0.00 | 0.00 | 0.00 | 83 | 1013.5 |
| 20260906083009 | 80 | 159 | 1.0 | 2.0 | 0.00 | 0.00 | 0.00 | 83 | 1013.5 |
| 20260906082509 | 80 | 196 | 1.0 | 2.0 | 0.00 | 0.00 | 0.00 | 83 | 1013.5 |
| 20260906082009 | 80 | 159 | 0.0 | 3.0 | 0.00 | 0.00 | 0.00 | 83 | 1013.6 |
| 20260906081509 | 80 | 165 | 1.0 | 3.0 | 0.00 | 0.00 | 0.00 | 83 | 1013.6 |
| 20260906081010 | 80 | 142 | 1.0 | 3.0 | 0.00 | 0.00 | 0.00 | 83 | 1013.6 |
| 20260906080509 | 80 | 160 | 0.0 | 3.0 | 0.00 | 0.00 | 0.00 | 83 | 1013.6 |
| 20260906080010 | 80 | 158 | 1.0 | 5.0 | 0.00 | 0.00 | 0.00 | 83 | 1013.5 |
| 20260906075509 | 80 | 132 | 2.0 | 5.0 | 0.00 | 0.00 | 0.00 | 83 | 1013.3 |
| 20260906075009 | 81 | 146 | 1.0 | 3.0 | 0.00 | 0.00 | 0.00 | 83 | 1013.2 |
| 20260906074512 | 81 | 150 | 1.0 | 3.0 | 0.00 | 0.00 | 0.00 | 82 | 1013.2 |
| 20260906074010 | 81 | 144 | 1.0 | 3.0 | 0.00 | 0.00 | 0.00 | 82 | 1013.2 |
| 20260906073510 | 81 | 129 | 2.0 | 3.0 | 0.00 | 0.00 | 0.00 | 82 | 1013.2 |
| 20260906073010 | 81 | 146 | 2.0 | 6.0 | 0.00 | 0.00 | 0.00 | 82 | 1013.2 |
| 20260906072509 | 81 | 144 | 2.0 | 6.0 | 0.00 | 0.00 | 0.00 | 82 | 1013.3 |
| 20260906072009 | 81 | 123 | 2.0 | 6.0 | 0.00 | 0.00 | 0.00 | 82 | 1013.3 |
| 20260906071510 | 81 | 146 | 2.0 | 6.0 | 0.00 | 0.00 | 0.00 | 82 | 1013.4 |
| 20260906071010 | 81 | 138 | 1.0 | 3.0 | 0.00 | 0.00 | 0.00 | 82 | 1013.6 |
| 20260906070510 | 81 | 119 | 1.0 | 6.0 | 0.00 | 0.00 | 0.00 | 82 | 1013.6 |
| 20260906070010 | 81 | 140 | 2.0 | 6.0 | 0.00 | 0.00 | 0.00 | 82 | 1013.6 |
| 20260906065510 | 81 | 152 | 1.0 | 5.0 | 0.00 | 0.00 | 0.00 | 82 | 1013.6 |
| 20260906065010 | 81 | 105 | 2.0 | 6.0 | 0.00 | 0.00 | 0.00 | 82 | 1013.6 |
| 20260906063510 | 82 | 137 | 1.0 | 3.0 | 0.00 | 0.00 | 0.00 | 82 | 1013.6 |
| 20260906063010 | 82 | 162 | 2.0 | 3.0 | 0.00 | 0.00 | 0.00 | 81 | 1013.7 |
| 20260906062510 | 82 | 159 | 1.0 | 2.0 | 0.00 | 0.00 | 0.00 | 81 | 1013.7 |
| 20260906061509 | 82 | 148 | 1.0 | 5.0 | 0.00 | 0.00 | 0.00 | 81 | 1013.6 |
| 20260906061010 | 82 | 122 | 1.0 | 5.0 | 0.00 | 0.00 | 0.00 | 81 | 1013.7 |
| 20260906060510 | 82 | 152 | 2.0 | 5.0 | 0.00 | 0.00 | 0.00 | 81 | 1013.7 |
| 20260906060010 | 82 | 151 | 2.0 | 3.0 | 0.00 | 0.00 | 0.00 | 81 | 1013.6 |
| 20260906055510 | 82 | 136 | 1.0 | 3.0 | 0.00 | 0.00 | 0.00 | 81 | 1013.6 |
| 20260906055010 | 82 | 157 | 1.0 | 3.0 | 0.00 | 0.00 | 0.00 | 81 | 1013.6 |
| 20260906054510 | 82 | 120 | 1.0 | 6.0 | 0.00 | 0.00 | 0.00 | 81 | 1013.6 |
| 20260906054010 | 82 | 111 | 2.0 | 6.0 | 0.00 | 0.00 | 0.00 | 81 | 1013.6 |
| 20260906053509 | 82 | 155 | 1.0 | 5.0 | 0.00 | 0.00 | 0.00 | 81 | 1013.6 |
| 20260906052509 | 82 | 145 | 1.0 | 7.0 | 0.00 | 0.00 | 0.00 | 81 | 1013.6 |
| 20260906052009 | 82 | 125 | 2.0 | 7.0 | 0.00 | 0.00 | 0.00 | 81 | 1013.6 |
| 20260906051508 | 82 | 125 | 1.0 | 5.0 | 0.00 | 0.00 | 0.00 | 81 | 1013.6 |
| 20260906051009 | 82 | 130 | 1.0 | 3.0 | 0.00 | 0.00 | 0.00 | 81 | 1013.7 |
| 20260906050009 | 82 | 126 | 0.0 | 6.0 | 0.00 | 0.00 | 0.00 | 81 | 1013.8 |
| 20260906045511 | 82 | 126 | 0.0 | 6.0 | 0.00 | 0.00 | 0.00 | 81 | 1013.8 |
| 20260906045009 | 82 | 44 | 0.0 | 1.0 | 0.00 | 0.00 | 0.00 | 80 | 1013.8 |
| 20260906044509 | 82 | 44 | 0.0 | 1.0 | 0.00 | 0.00 | 0.00 | 80 | 1013.8 |
| 20260906044009 | 83 | 44 | 0.0 | 2.0 | 0.00 | 0.00 | 0.00 | 80 | 1013.8 |
| 20260906043509 | 83 | 42 | 0.0 | 2.0 | 0.00 | 0.00 | 0.00 | 80 | 1013.8 |
| 20260906043009 | 83 | 186 | 0.0 | 2.0 | 0.00 | 0.00 | 0.00 | 80 | 1013.8 |
| 20260906042508 | 83 | 189 | 0.0 | 1.0 | 0.00 | 0.00 | 0.00 | 80 | 1013.8 |
| 20260906042009 | 83 | 189 | 0.0 | 1.0 | 0.00 | 0.00 | 0.00 | 79 | 1013.9 |
| 20260906041509 | 83 | 230 | 0.0 | 1.0 | 0.00 | 0.00 | 0.00 | 79 | 1013.8 |
| 20260906040509 | 83 | 90 | 0.0 | 2.0 | 0.00 | 0.00 | 0.00 | 79 | 1013.8 |
| 20260906040009 | 83 | 91 | 0.0 | 2.0 | 0.00 | 0.00 | 0.00 | 79 | 1013.8 |
| 20260906035508 | 83 | 294 | 0.0 | 2.0 | 0.00 | 0.00 | 0.00 | 79 | 1013.7 |
| 20260906035009 | 84 | 273 | 0.0 | 1.0 | 0.00 | 0.00 | 0.00 | 78 | 1013.8 |
| 20260906034509 | 84 | 284 | 0.0 | 1.0 | 0.00 | 0.00 | 0.00 | 78 | 1013.7 |
| 20260906034009 | 84 | 286 | 0.0 | 2.0 | 0.00 | 0.00 | 0.00 | 78 | 1013.6 |
| 20260906033509 | 84 | 288 | 0.0 | 2.0 | 0.00 | 0.00 | 0.00 | 78 | 1013.6 |
| 20260906033010 | 84 | 289 | 0.0 | 2.0 | 0.00 | 0.00 | 0.00 | 77 | 1013.6 |
| 20260906032509 | 84 | 138 | 0.0 | 3.0 | 0.00 | 0.00 | 0.00 | 77 | 1013.6 |
| 20260906032009 | 84 | 139 | 0.0 | 3.0 | 0.00 | 0.00 | 0.00 | 77 | 1013.6 |
| 20260906030509 | 85 | 163 | 0.0 | 3.0 | 0.00 | 0.00 | 0.00 | 77 | 1013.1 |
| 20260906030009 | 85 | 74 | 1.0 | 3.0 | 0.00 | 0.00 | 0.00 | 77 | 1013.1 |
| 20260906025508 | 85 | 178 | 1.0 | 2.0 | 0.00 | 0.00 | 0.00 | 77 | 1013.1 |
| 20260906025009 | 85 | 182 | 0.0 | 2.0 | 0.00 | 0.00 | 0.00 | 77 | 1013.0 |
| 20260906024509 | 85 | 171 | 0.0 | 2.0 | 0.00 | 0.00 | 0.00 | 77 | 1012.9 |
| 20260906024009 | 85 | 71 | 0.0 | 3.0 | 0.00 | 0.00 | 0.00 | 76 | 1012.7 |
| 20260906023509 | 85 | 71 | 0.0 | 3.0 | 0.00 | 0.00 | 0.00 | 76 | 1012.7 |
| 20260906022510 | 86 | 175 | 1.0 | 3.0 | 0.00 | 0.00 | 0.00 | 76 | 1012.6 |
| 20260906022009 | 86 | 130 | 0.0 | 3.0 | 0.00 | 0.00 | 0.00 | 76 | 1012.6 |
| 20260906021510 | 86 | 126 | 1.0 | 3.0 | 0.00 | 0.00 | 0.00 | 75 | 1012.5 |
| 20260906020509 | 86 | 65 | 1.0 | 5.0 | 0.00 | 0.00 | 0.00 | 74 | 1012.4 |
| 20260906020009 | 87 | 71 | 2.0 | 5.0 | 0.00 | 0.00 | 0.00 | 74 | 1012.5 |
| 20260906015509 | 87 | 88 | 2.0 | 3.0 | 0.00 | 0.00 | 0.00 | 74 | 1012.2 |
| 20260906015009 | 87 | 77 | 1.0 | 3.0 | 0.00 | 0.00 | 0.00 | 73 | 1012.2 |
| 20260906014510 | 87 | 73 | 0.0 | 3.0 | 0.00 | 0.00 | 0.00 | 72 | 1012.2 |
| 20260906014010 | 88 | 74 | 1.0 | 3.0 | 0.00 | 0.00 | 0.00 | 72 | 1012.1 |
| 20260906013509 | 88 | 73 | 1.0 | 6.0 | 0.00 | 0.00 | 0.00 | 72 | 1012.1 |
| 20260906013010 | 88 | 178 | 0.0 | 6.0 | 0.00 | 0.00 | 0.00 | 71 | 1012.1 |
| 20260906012510 | 88 | 145 | 0.0 | 2.0 | 0.00 | 0.00 | 0.00 | 71 | 1012.0 |
| 20260906012010 | 88 | 72 | 1.0 | 3.0 | 0.00 | 0.00 | 0.00 | 70 | 1011.9 |
| 20260906011509 | 89 | 72 | 1.0 | 3.0 | 0.00 | 0.00 | 0.00 | 70 | 1012.0 |
| 20260906011010 | 89 | 67 | 1.0 | 3.0 | 0.00 | 0.00 | 0.00 | 69 | 1011.9 |
| 20260906010510 | 89 | 55 | 1.0 | 2.0 | 0.00 | 0.00 | 0.00 | 68 | 1011.8 |
| 20260906010010 | 89 | 138 | 0.0 | 2.0 | 0.00 | 0.00 | 0.00 | 68 | 1011.8 |
| 20260906005509 | 90 | 138 | 0.0 | 5.0 | 0.00 | 0.00 | 0.00 | 68 | 1011.7 |
| 20260906005010 | 90 | 137 | 2.0 | 5.0 | 0.00 | 0.00 | 0.00 | 68 | 1011.7 |
| 20260906004510 | 90 | 144 | 0.0 | 3.0 | 0.00 | 0.00 | 0.00 | 67 | 1011.7 |
| 20260906004010 | 90 | 112 | 1.0 | 3.0 | 0.00 | 0.00 | 0.00 | 67 | 1011.7 |
| 20260906003510 | 91 | 112 | 0.0 | 3.0 | 0.00 | 0.00 | 0.00 | 66 | 1011.7 |
| 20260906003010 | 91 | 130 | 1.0 | 3.0 | 0.00 | 0.00 | 0.00 | 66 | 1011.7 |
| 20260906001510 | 91 | 119 | 1.0 | 5.0 | 0.00 | 0.00 | 0.00 | 65 | 1011.5 |
| 20260906001009 | 91 | 130 | 2.0 | 3.0 | 0.00 | 0.00 | 0.00 | 65 | 1011.5 |
| 20260905235508 | 91 | 134 | 3.0 | 10.0 | 0.00 | 0.00 | 0.00 | 64 | 1011.5 |
| 20260905235009 | 91 | 35 | 3.0 | 10.0 | 0.00 | 0.00 | 0.00 | 64 | 1011.5 |
| 20260905234509 | 91 | 129 | 3.0 | 9.0 | 0.00 | 0.00 | 0.00 | 64 | 1011.5 |
| 20260905233509 | 91 | 143 | 3.0 | 9.0 | 0.00 | 0.00 | 0.00 | 64 | 1011.5 |
| 20260905233009 | 92 | 146 | 3.0 | 9.0 | 0.00 | 0.00 | 0.00 | 64 | 1011.4 |
| 20260905232509 | 92 | 129 | 1.0 | 7.0 | 0.00 | 0.00 | 0.00 | 64 | 1011.5 |
| 20260905232009 | 92 | 136 | 2.0 | 7.0 | 0.00 | 0.00 | 0.00 | 63 | 1011.5 |
| 20260905231509 | 92 | 162 | 2.0 | 6.0 | 0.00 | 0.00 | 0.00 | 62 | 1011.5 |
| 20260905231009 | 92 | 137 | 2.0 | 6.0 | 0.00 | 0.00 | 0.00 | 63 | 1011.5 |
| 20260905230509 | 92 | 109 | 3.0 | 6.0 | 0.00 | 0.00 | 0.00 | 62 | 1011.5 |
| 20260905225009 | 92 | 162 | 2.0 | 6.0 | 0.00 | 0.00 | 0.00 | 62 | 1011.4 |
| 20260905224509 | 92 | 120 | 2.0 | 6.0 | 0.00 | 0.00 | 0.00 | 62 | 1011.4 |
| 20260905224010 | 92 | 95 | 1.0 | 7.0 | 0.00 | 0.00 | 0.00 | 63 | 1011.3 |
| 20260905223509 | 92 | 102 | 1.0 | 9.0 | 0.00 | 0.00 | 0.00 | 62 | 1011.1 |
| 20260905223009 | 92 | 152 | 4.0 | 10.0 | 0.00 | 0.00 | 0.00 | 62 | 1011.0 |
| 20260905220510 | 92 | 115 | 2.0 | 13.0 | 0.00 | 0.00 | 0.00 | 62 | 1010.9 |
| 20260905220009 | 92 | 142 | 5.0 | 13.0 | 0.00 | 0.00 | 0.00 | 61 | 1010.9 |
| 20260905215510 | 92 | 185 | 4.0 | 12.0 | 0.00 | 0.00 | 0.00 | 61 | 1011.0 |
| 20260905215009 | 92 | 205 | 5.0 | 10.0 | 0.00 | 0.00 | 0.00 | 61 | 1011.0 |
| 20260905214510 | 92 | 156 | 4.0 | 12.0 | 0.00 | 0.00 | 0.00 | 60 | 1011.0 |
| 20260905213509 | 92 | 160 | 4.0 | 12.0 | 0.00 | 0.00 | 0.00 | 61 | 1011.3 |
| 20260905213010 | 92 | 141 | 3.0 | 10.0 | 0.00 | 0.00 | 0.00 | 61 | 1011.4 |
| 20260905212510 | 92 | 154 | 5.0 | 12.0 | 0.00 | 0.00 | 0.00 | 60 | 1011.4 |
| 20260905212010 | 92 | 170 | 2.0 | 13.0 | 0.00 | 0.00 | 0.00 | 61 | 1011.5 |
| 20260905211510 | 92 | 143 | 6.0 | 13.0 | 0.00 | 0.00 | 0.00 | 60 | 1011.5 |
| 20260905211010 | 91 | 173 | 2.0 | 12.0 | 0.00 | 0.00 | 0.00 | 60 | 1011.5 |
| 20260905210510 | 91 | 138 | 1.0 | 12.0 | 0.00 | 0.00 | 0.00 | 60 | 1011.7 |
| 20260905210010 | 91 | 152 | 5.0 | 12.0 | 0.00 | 0.00 | 0.00 | 60 | 1011.7 |
| 20260905205510 | 91 | 72 | 3.0 | 12.0 | 0.00 | 0.00 | 0.00 | 60 | 1012.0 |
| 20260905205010 | 91 | 142 | 2.0 | 12.0 | 0.00 | 0.00 | 0.00 | 61 | 1012.1 |
| 20260905204510 | 91 | 138 | 4.0 | 12.0 | 0.00 | 0.00 | 0.00 | 61 | 1012.2 |
| 20260905204010 | 91 | 76 | 3.0 | 9.0 | 0.00 | 0.00 | 0.00 | 60 | 1012.5 |
| 20260905203510 | 90 | 78 | 2.0 | 7.0 | 0.00 | 0.00 | 0.00 | 60 | 1012.7 |
| 20260905203010 | 91 | 113 | 3.0 | 10.0 | 0.00 | 0.00 | 0.00 | 60 | 1012.7 |
| 20260905202010 | 91 | 132 | 3.0 | 10.0 | 0.00 | 0.00 | 0.00 | 60 | 1012.9 |
| 20260905201010 | 90 | 136 | 2.0 | 10.0 | 0.00 | 0.00 | 0.00 | 59 | 1013.2 |
| 20260905200010 | 90 | 86 | 4.0 | 12.0 | 0.00 | 0.00 | 0.00 | 59 | 1013.5 |
| 20260905195510 | 90 | 123 | 3.0 | 10.0 | 0.00 | 0.00 | 0.00 | 60 | 1013.6 |
| 20260905195010 | 90 | 70 | 3.0 | 9.0 | 0.00 | 0.00 | 0.00 | 59 | 1013.7 |
| 20260905194510 | 90 | 213 | 3.0 | 10.0 | 0.00 | 0.00 | 0.00 | 59 | 1013.7 |
| 20260905194010 | 90 | 59 | 3.0 | 10.0 | 0.00 | 0.00 | 0.00 | 58 | 1013.7 |
| 20260905193510 | 90 | 11 | 5.0 | 10.0 | 0.00 | 0.00 | 0.00 | 57 | 1013.8 |
| 20260905193010 | 89 | 52 | 2.0 | 14.0 | 0.00 | 0.00 | 0.00 | 59 | 1013.8 |
| 20260905192509 | 89 | 96 | 3.0 | 14.0 | 0.00 | 0.00 | 0.00 | 59 | 1014.0 |
| 20260905192009 | 89 | 134 | 4.0 | 12.0 | 0.00 | 0.00 | 0.00 | 59 | 1014.1 |
| 20260905191509 | 89 | 132 | 2.0 | 10.0 | 0.00 | 0.00 | 0.00 | 60 | 1014.1 |
| 20260905190509 | 89 | 136 | 4.0 | 12.0 | 0.00 | 0.00 | 0.00 | 61 | 1014.3 |
| 20260905185509 | 89 | 93 | 2.0 | 12.0 | 0.00 | 0.00 | 0.00 | 62 | 1014.6 |
| 20260905185009 | 89 | 24 | 6.0 | 13.0 | 0.00 | 0.00 | 0.00 | 61 | 1014.7 |
| 20260905184509 | 89 | 38 | 5.0 | 13.0 | 0.00 | 0.00 | 0.00 | 63 | 1014.8 |
| 20260905184009 | 89 | 350 | 5.0 | 13.0 | 0.00 | 0.00 | 0.00 | 63 | 1014.9 |
| 20260905183509 | 89 | 53 | 4.0 | 13.0 | 0.00 | 0.00 | 0.00 | 64 | 1015.1 |
| 20260905183009 | 89 | 71 | 5.0 | 15.0 | 0.00 | 0.00 | 0.00 | 63 | 1015.2 |
| 20260905182009 | 88 | 265 | 5.0 | 12.0 | 0.00 | 0.00 | 0.00 | 64 | 1015.2 |
| 20260905181509 | 88 | 41 | 5.0 | 12.0 | 0.00 | 0.00 | 0.00 | 64 | 1015.2 |
| 20260905181009 | 88 | 83 | 6.0 | 13.0 | 0.00 | 0.00 | 0.00 | 65 | 1015.3 |
| 20260905180510 | 88 | 53 | 5.0 | 14.0 | 0.00 | 0.00 | 0.00 | 67 | 1015.2 |
| 20260905180012 | 88 | 49 | 8.0 | 17.0 | 0.00 | 0.00 | 0.00 | 67 | 1015.2 |
| 20260905175508 | 88 | 36 | 6.0 | 17.0 | 0.00 | 0.00 | 0.00 | 66 | 1015.3 |
| 20260905175009 | 88 | 61 | 4.0 | 13.0 | 0.00 | 0.00 | 0.00 | 68 | 1015.2 |
| 20260905174509 | 88 | 78 | 6.0 | 14.0 | 0.00 | 0.00 | 0.00 | 67 | 1015.2 |
| 20260905174009 | 88 | 49 | 7.0 | 14.0 | 0.00 | 0.00 | 0.00 | 68 | 1015.2 |
| 20260905173509 | 88 | 20 | 5.0 | 15.0 | 0.00 | 0.00 | 0.00 | 68 | 1015.1 |
| 20260905173009 | 88 | 42 | 8.0 | 15.0 | 0.00 | 0.00 | 0.00 | 68 | 1015.2 |
| 20260905172509 | 87 | 350 | 5.0 | 14.0 | 0.00 | 0.00 | 0.00 | 68 | 1015.2 |
| 20260905172009 | 87 | 10 | 5.0 | 14.0 | 0.00 | 0.00 | 0.00 | 68 | 1015.2 |
| 20260905171510 | 87 | 71 | 7.0 | 15.0 | 0.00 | 0.00 | 0.00 | 68 | 1015.2 |
| 20260905171009 | 87 | 329 | 7.0 | 15.0 | 0.00 | 0.00 | 0.00 | 68 | 1015.2 |
| 20260905170509 | 87 | 9 | 6.0 | 15.0 | 0.00 | 0.00 | 0.00 | 68 | 1015.1 |
| 20260905170010 | 87 | 4 | 7.0 | 15.0 | 0.00 | 0.00 | 0.00 | 67 | 1015.2 |
| 20260905165509 | 87 | 350 | 6.0 | 13.0 | 0.00 | 0.00 | 0.00 | 68 | 1015.1 |
| 20260905165010 | 87 | 24 | 5.0 | 17.0 | 0.00 | 0.00 | 0.00 | 70 | 1015.1 |
| 20260905164510 | 87 | 331 | 9.0 | 17.0 | 0.00 | 0.00 | 0.00 | 70 | 1015.1 |
| 20260905163510 | 87 | 338 | 5.0 | 12.0 | 0.00 | 0.00 | 0.00 | 72 | 1015.0 |
| 20260905163010 | 87 | 346 | 6.0 | 12.0 | 0.00 | 0.00 | 0.00 | 71 | 1015.2 |
| 20260905162509 | 87 | 320 | 5.0 | 14.0 | 0.00 | 0.00 | 0.00 | 72 | 1015.2 |
| 20260905162010 | 87 | 311 | 5.0 | 17.0 | 0.00 | 0.00 | 0.00 | 72 | 1015.2 |
| 20260905161510 | 87 | 342 | 9.0 | 17.0 | 0.00 | 0.00 | 0.00 | 72 | 1015.2 |
| 20260905160010 | 86 | 5 | 3.0 | 7.0 | 0.00 | 0.00 | 0.00 | 72 | 1014.7 |
| 20260905155510 | 86 | 340 | 3.0 | 6.0 | 0.00 | 0.00 | 0.00 | 72 | 1014.7 |
| 20260905155010 | 86 | 325 | 3.0 | 6.0 | 0.00 | 0.00 | 0.00 | 72 | 1014.6 |
| 20260905154510 | 85 | 330 | 3.0 | 5.0 | 0.00 | 0.00 | 0.00 | 72 | 1014.6 |
| 20260905154010 | 85 | 334 | 2.0 | 5.0 | 0.00 | 0.00 | 0.00 | 72 | 1014.6 |
| 20260905153510 | 85 | 23 | 2.0 | 5.0 | 0.00 | 0.00 | 0.00 | 72 | 1014.6 |
| 20260905152510 | 85 | 343 | 1.0 | 3.0 | 0.00 | 0.00 | 0.00 | 70 | 1014.4 |
| 20260905152010 | 85 | 38 | 1.0 | 3.0 | 0.00 | 0.00 | 0.00 | 71 | 1014.3 |
| 20260905151510 | 84 | 49 | 3.0 | 3.0 | 0.00 | 0.00 | 0.00 | 71 | 1014.3 |
| 20260905151010 | 84 | 45 | 1.0 | 2.0 | 0.00 | 0.00 | 0.00 | 72 | 1014.2 |
| 20260905150510 | 84 | 45 | 1.0 | 2.0 | 0.00 | 0.00 | 0.00 | 72 | 1014.2 |
| 20260905150010 | 83 | 152 | 0.0 | 3.0 | 0.00 | 0.00 | 0.00 | 74 | 1014.2 |
| 20260905145510 | 83 | 1 | 2.0 | 3.0 | 0.00 | 0.00 | 0.00 | 74 | 1014.0 |
| 20260905145010 | 82 | 0 | 2.0 | 3.0 | 0.00 | 0.00 | 0.00 | 75 | 1014.0 |
| 20260905144513 | 82 | 342 | 0.0 | 3.0 | 0.00 | 0.00 | 0.00 | 76 | 1014.0 |
| 20260905144010 | 82 | 342 | 1.0 | 3.0 | 0.00 | 0.00 | 0.00 | 76 | 1013.8 |
| 20260905143509 | 81 | 346 | 1.0 | 3.0 | 0.00 | 0.00 | 0.00 | 78 | 1013.7 |
| 20260905143009 | 81 | 69 | 0.0 | 3.0 | 0.00 | 0.00 | 0.00 | 79 | 1013.7 |
| 20260905142509 | 80 | 176 | 1.0 | 3.0 | 0.00 | 0.00 | 0.00 | 80 | 1013.6 |
| 20260905141509 | 79 | 0 | 1.0 | 3.0 | 0.00 | 0.00 | 0.00 | 83 | 1013.7 |
| 20260905141009 | 79 | 29 | 0.0 | 3.0 | 0.00 | 0.00 | 0.00 | 84 | 1013.7 |
| 20260905140509 | 78 | 57 | 1.0 | 3.0 | 0.00 | 0.00 | 0.00 | 85 | 1013.3 |
| 20260905140009 | 78 | 146 | 1.0 | 3.0 | 0.00 | 0.00 | 0.00 | 85 | 1013.2 |
| 20260905135509 | 77 | 127 | 1.0 | 3.0 | 0.00 | 0.00 | 0.00 | 85 | 1013.2 |
| 20260905135009 | 77 | 134 | 2.0 | 3.0 | 0.00 | 0.00 | 0.00 | 86 | 1013.2 |
| 20260905134009 | 76 | 317 | 0.0 | 3.0 | 0.00 | 0.00 | 0.00 | 87 | 1013.7 |
| 20260905133509 | 76 | 320 | 1.0 | 3.0 | 0.00 | 0.00 | 0.00 | 87 | 1013.8 |
| 20260905133009 | 76 | 124 | 1.0 | 2.0 | 0.00 | 0.00 | 0.00 | 88 | 1013.8 |
| 20260905132509 | 76 | 123 | 1.0 | 2.0 | 0.00 | 0.00 | 0.00 | 88 | 1013.6 |
| 20260905132009 | 75 | 124 | 1.0 | 2.0 | 0.00 | 0.00 | 0.00 | 88 | 1013.4 |